ELY552 LBSF-LLBG

Flight info

Callsign ELY552
Flight time N/A
Altitude 35000
Route OMENO DCT RODIP UN131 PIBOM DCT BELGI UN131 KULAR UT39 TOMBI DCT IDAKU L35 PIKOG L609 ZUKKO
Aircraft B738/M-SDE2E3FGHIRWXY/LB1

Departure

Time 2026-05-07 12:25
Airport Sofia Airport (LBSF)

Arrival

Time N/A
Airport Ben Gurion International Airport (LLBG)
Time Latitude Longitude Altitude Speed Heading
2026-05-07 11:53 42.68993 23.40686 1768 ft 0 kts 198°
2026-05-07 12:15 42.68992 23.40686 1768 ft 0 kts 198°
2026-05-07 12:15 42.68977 23.40680 1769 ft 3 kts 198°
2026-05-07 12:16 42.68943 23.40690 1769 ft 5 kts 133°
2026-05-07 12:16 42.68949 23.40744 1769 ft 6 kts 23°
2026-05-07 12:16 42.69004 23.40763 1768 ft 10 kts 15°
2026-05-07 12:16 42.69064 23.40843 1767 ft 14 kts 73°
2026-05-07 12:17 42.69097 23.40987 1766 ft 16 kts 71°
2026-05-07 12:17 42.69139 23.41114 1764 ft 13 kts 37°
2026-05-07 12:17 42.69227 23.41150 1763 ft 13 kts 11°
2026-05-07 12:17 42.69318 23.41172 1762 ft 13 kts 10°
2026-05-07 12:18 42.69407 23.41197 1762 ft 12 kts 13°
2026-05-07 12:18 42.69479 23.41256 1761 ft 12 kts 69°
2026-05-07 12:18 42.69477 23.41371 1760 ft 12 kts 96°
2026-05-07 12:18 42.69469 23.41483 1759 ft 11 kts 95°
2026-05-07 12:19 42.69462 23.41592 1759 ft 11 kts 94°
2026-05-07 12:19 42.69457 23.41702 1759 ft 12 kts 93°
2026-05-07 12:19 42.69451 23.41818 1758 ft 12 kts 94°
2026-05-07 12:19 42.69443 23.41938 1758 ft 13 kts 96°
2026-05-07 12:20 42.69433 23.42063 1758 ft 13 kts 95°
2026-05-07 12:20 42.69424 23.42191 1757 ft 13 kts 89°
2026-05-07 12:20 42.69420 23.42326 1756 ft 14 kts 95°
2026-05-07 12:20 42.69411 23.42467 1756 ft 15 kts 95°
2026-05-07 12:21 42.69402 23.42617 1754 ft 16 kts 94°
2026-05-07 12:21 42.69393 23.42773 1754 ft 17 kts 94°
2026-05-07 12:21 42.69382 23.42936 1754 ft 17 kts 95°
2026-05-07 12:21 42.69372 23.43098 1754 ft 17 kts 95°
2026-05-07 12:22 42.69364 23.43254 1755 ft 16 kts 94°
2026-05-07 12:22 42.69355 23.43402 1757 ft 15 kts 95°
2026-05-07 12:22 42.69346 23.43540 1758 ft 14 kts 95°
2026-05-07 12:22 42.69338 23.43673 1759 ft 13 kts 94°
2026-05-07 12:23 42.69331 23.43800 1760 ft 13 kts 94°
2026-05-07 12:23 42.69344 23.43916 1760 ft 11 kts 25°
2026-05-07 12:23 42.69404 23.43939 1760 ft 8 kts 18°
2026-05-07 12:23 42.69466 23.43952 1760 ft 10 kts
2026-05-07 12:24 42.69514 23.43914 1760 ft 8 kts 280°
2026-05-07 12:24 42.69522 23.43793 1760 ft 27 kts 275°
2026-05-07 12:24 42.69558 23.43212 1754 ft 94 kts 274°
2026-05-07 12:24 42.69626 23.42058 1757 ft 149 kts 274°
2026-05-07 12:25 42.69721 23.40458 1796 ft 189 kts 274°
2026-05-07 12:25 42.69830 23.38674 2406 ft 190 kts 274°
2026-05-07 12:25 42.70166 23.36918 2965 ft 199 kts 302°
2026-05-07 12:25 42.71173 23.35625 3455 ft 209 kts 334°
2026-05-07 12:26 42.72612 23.35089 3875 ft 220 kts 353°
2026-05-07 12:26 42.74187 23.34855 4267 ft 235 kts 353°
2026-05-07 12:26 42.75862 23.34582 4620 ft 253 kts 352°
2026-05-07 12:26 42.77669 23.34265 5085 ft 267 kts 352°
2026-05-07 12:27 42.79557 23.33931 5572 ft 279 kts 351°
2026-05-07 12:27 42.81472 23.33594 6222 ft 283 kts 351°
2026-05-07 12:27 42.83438 23.33251 6893 ft 287 kts 351°
2026-05-07 12:27 42.85422 23.32912 7601 ft 289 kts 353°
2026-05-07 12:28 42.87434 23.33020 8238 ft 295 kts 13°
2026-05-07 12:28 42.89306 23.34106 8921 ft 297 kts 33°
2026-05-07 12:28 42.90900 23.35926 9576 ft 300 kts 47°
2026-05-07 12:28 42.92166 23.38137 10210 ft 302 kts 60°
2026-05-07 12:29 42.92936 23.40842 10543 ft 314 kts 82°
2026-05-07 12:29 42.92970 23.43853 10858 ft 325 kts 100°
2026-05-07 12:29 42.92382 23.46883 11169 ft 337 kts 113°
2026-05-07 12:29 42.91175 23.49683 11408 ft 350 kts 133°
2026-05-07 12:30 42.89244 23.51728 11655 ft 360 kts 154°
2026-05-07 12:30 42.86824 23.52725 11942 ft 370 kts 174°
2026-05-07 12:30 42.84220 23.52900 12483 ft 375 kts 180°
2026-05-07 12:30 42.81634 23.52935 13092 ft 379 kts 180°
2026-05-07 12:31 42.78973 23.52952 13742 ft 382 kts 180°
2026-05-07 12:31 42.76299 23.52974 14355 ft 386 kts 180°
2026-05-07 12:31 42.73615 23.53333 14979 ft 392 kts 170°
2026-05-07 12:31 42.70972 23.54342 15648 ft 397 kts 162°
2026-05-07 12:32 42.68384 23.55718 16272 ft 402 kts 158°
2026-05-07 12:32 42.65825 23.57257 16861 ft 407 kts 156°
2026-05-07 12:32 42.63250 23.58874 17463 ft 412 kts 156°
2026-05-07 12:32 42.60634 23.60522 18060 ft 415 kts 156°
2026-05-07 12:33 42.55287 23.63535 19199 ft 421 kts 165°
2026-05-07 12:33 42.54362 23.63854 19389 ft 422 kts 169°